Regional Weather Roundup
Issued by NWS

Home | Current Version | Previous Version | Text Only | Print | Product List | Glossary Off
Versions: 1 2 3 4 5 6 7 8 9 10 11 12 13 14 15 16 17 18 19 20 21 22 23 24 25 26 27 28 29 30 31 32 33 34 35 36 37 38 39 40 41 42 43 44 45 46 47 48 49 50

000
ASUS43 KDMX 180201
RWRIA

WEATHER ROUNDUP FOR IOWA
NATIONAL WEATHER SERVICE DES MOINES IA
800 PM CST WED JAN 17 2018

NOTE: "FAIR" INDICATES FEW OR NO CLOUDS BELOW 12,000 FEET WITH NO
SIGNIFICANT WEATHER AND/OR OBSTRUCTIONS TO VISIBILITY.

* - THESE STATIONS ARE NOT NWS STATIONS...THUS NOT UNDER NWS
QUALITY CONTROL.  THEY ALSO DO NOT REPORT WEATHER SUCH
AS PRECIPITATION OR FOG.

IAZ001>003-012>014-020>022-031>034-043>046-180300-
   NORTHWEST IOWA

CITY           SKY/WX    TMP DP  RH WIND       PRES   REMARKS
CARROLL *      CLOUDY    19  12  73 SW22G30   30.26S WCI   3
CHEROKEE *     CLOUDY    25  17  70 SW10      30.24F WCI  15
DENISON *      CLOUDY    19  12  73 SW10      30.30S WCI   8
LE MARS *      CLOUDY    25  18  74 S13       30.22F WCI  13
ORANGE CITY *  CLOUDY    27  19  74 SW15G23   30.19F WCI  15
SHELDON *      CLOUDY    25  18  74 SW9       30.18R WCI  15
SIOUX CITY     CLOUDY    26  16  65 SW10      30.27F WCI  16
SPENCER        CLOUDY    26  16  65 SW16G25   30.18F WCI  14
STORM LAKE *   CLEAR     23  14  68 SW20G25   30.22S WCI   8
$$

IAZ055>058-069>071-079>083-090>094-180300-
   SOUTHWEST IOWA

CITY           SKY/WX    TMP DP  RH WIND       PRES   REMARKS
ATLANTIC *     CLOUDY    19  10  68 SW16      30.34F WCI   5
AUDUBON *      CLOUDY    19  10  68 SW9G18    30.30F WCI   9
CLARINDA *     CLOUDY    16  10  79 S8        30.41S WCI   5
COUNCIL BLFS * CLOUDY    19  12  73 SW17G23   30.33F WCI   4
CRESTON *      CLOUDY    18  10  73 SW14      30.36S WCI   4
HARLAN  *      CLOUDY    19  10  68 SW16      30.35F WCI   5
LAMONI         CLOUDY    18   9  68 S13       30.37F WCI   5
RED OAK *      CLEAR     18  10  73 S8        30.37F WCI   7
SHENANDOAH *   CLEAR     18  10  73 S7        30.40F WCI   8
$$

IAZ047>049-059>061-072>074-084-180300-
   CENTRAL IOWA

CITY           SKY/WX    TMP DP  RH WIND       PRES   REMARKS
AMES           CLOUDY    19  11  70 SW16      30.30F WCI   4
ANKENY *       CLOUDY    21  10  63 SW15G22   30.34F WCI   8
BOONE *        CLOUDY    19  10  68 SW14      30.27F WCI   6
CHARITON *     CLOUDY    18   9  68 SW10      30.35F WCI   6
DES MOINES     CLOUDY    20  10  65 SW14      30.33F WCI   7
GRINNELL*      PTCLDY    19  10  67 SW18      30.32F WCI   4
KNOXVILLE *    CLOUDY    21   7  53 SW14G22   30.33F WCI   8
MARSHALLTOWN   CLOUDY    20  10  65 SW16G24   30.28F WCI   6
NEWTON *       CLOUDY    19   9  63 SW17      30.32F WCI   4
PELLA *        CLOUDY    21   9  58 SW16G22   30.35F WCI   7
PERRY *          N/A     19   9  63 SW10      30.31F WCI   8
$$

IAZ004>006-015-016-023>025-035-036-180300-
   NORTH CENTRAL IOWA

CITY           SKY/WX    TMP DP  RH WIND       PRES   REMARKS
ALGONA *       CLOUDY    23  23 100 SW22      30.17F WCI   8
CLARION *      CLOUDY    18  14  86 SW14      30.23F WCI   4
ESTHERVILLE    CLOUDY    25  18  74 W17G26    30.16R WCI  12
FORT DODGE *   CLEAR     19  12  74 SW17      30.24F WCI   4
MASON CITY     CLOUDY    20  11  68 SW21G28   30.17F WCI   4
FOREST CITY *    N/A     21  14  73 SW12      30.17F WCI   9
WEBSTER CITY * CLOUDY    21  10  63 SW23      30.20F WCI   5
IOWA FALLS *     N/A     22  13  68 SW21      30.25S WCI   6
$$

IAZ007>011-017>019-026>030-037>042-050>054-066-180300-
   NORTHEAST IOWA

CITY           SKY/WX    TMP DP  RH WIND       PRES   REMARKS
CEDAR RAPIDS     N/A     20   9  62 SW14      30.30F WCI   7
CHARLES CITY *   N/A     19  12  73 SW14      30.19F WCI   6
CLINTON *        N/A     17  11  77 SW18      30.32F WCI   1
DECORAH *        N/A     21  10  63 SW10G21   30.18F WCI  10
DUBUQUE          N/A     17   8  67 SW22      30.22F WCI   0
MONTICELLO *     N/A     19  10  68 SW13G20   30.28F WCI   7
OELWEIN *        N/A     16  12  86 SW14      30.24F WCI   1
WATERLOO         N/A     20   9  62 SW16      30.25F WCI   6
$$

IAZ064-065-067-068-078-180300-
   EAST CENTRAL IOWA

CITY           SKY/WX    TMP DP  RH WIND       PRES   REMARKS
DAVENPORT        N/A     19  10  68 SW16      30.36F WCI   4
IOWA CITY        N/A     20   9  62 SW9       30.37F WCI   9
MT. PLEASANT * CLOUDY    19  10  68 SW15      30.40F WCI   5
MUSCATINE *      N/A     19  10  68 S14       30.39F WCI   6
QUAD CITIES      N/A     18  10  71 SW12      30.36F WCI   5
$$

IAZ062-063-075>077-085>089-095>099-180300-
   SOUTHEAST IOWA

CITY           SKY/WX    TMP DP  RH WIND       PRES   REMARKS
BURLINGTON     CLOUDY    17   9  70 SW14      30.41F WCI   3
FAIRFIELD *    CLOUDY    19   9  63 SW15      30.37F WCI   5
FORT MADISON * CLOUDY    18  10  73 SW12G20   30.42F WCI   5
KEOKUK *       CLOUDY    18  10  73 SW15      30.43F WCI   3
OSKALOOSA *      N/A     19  11  69 SW17      30.36F WCI   4
OTTUMWA        CLOUDY    21   8  57 SW14      30.36F WCI   8
WASHINGTON *   CLOUDY    19  12  73 SW15      30.38F WCI   5
$$

ABBREVIATIONS USED IN REMARKS
   TC - TEMPERATURES IN CELSIUS
  WCI - WIND CHILL INDEX
   HX - HEAT INDEX
  VSB - VISIBILITY
$$





USA.gov is the U.S. government's official web portal to all federal, state and local government web resources and services.